Regional Weather Roundup
Issued by NWS

Home | Current Version | Previous Version | Text Only | Print | Product List | Glossary On
Versions: 1 2 3 4 5 6 7 8 9 10 11 12 13 14 15 16 17 18 19 20 21 22 23 24 25 26 27 28 29 30 31 32 33 34 35 36 37 38 39 40 41 42 43 44 45 46 47 48 49 50
000
ASCA44 KEWX 242320
RWRMX

LATIN AMERICA AND CARIBBEAN REGIONAL WEATHER ROUNDUP
NATIONAL WEATHER SERVICE AUSTIN/SAN ANTONIO TX
600 PM CDT TUE MAY 24 2016

NOTE: "FAIR" INDICATED FEW OR NO CLOUDS BELOW 12,000 FEET WITH NO
SIGNIFICANT WEATHER AND/OR OBSTRUCTIONS TO VISIBILITY.

BAJA CALIFORNIA

CITY           SKY/WX    TMP DP  RH WIND       PRES   REMARKS
LORETO         PTSUNNY   84  61  45 NE6       29.49F
LA PAZ         PTSUNNY   91  28  10 N14       29.90S
MEXICALI       SUNNY     84  28  13 NW13      29.87S
S.J. DEL CABO  MOSUNNY   86  64  48 SE17      29.90F
TIJUANA        PTSUNNY   66  48  52 SW6       30.07S

NORTHWESTERN MEXICO

CITY           SKY/WX    TMP DP  RH WIND       PRES   REMARKS
CULIACAN       CLOUDY    93  72  49 SW12      29.91S HX 100
DURANGO        CLOUDY    90  18   7 SW10      30.16F
GUAYMAS        PTSUNNY   84  66  54 S7        29.84F
HERMOSILLO     PTSUNNY   91  32  12 SW9       29.92F
CD. JUAREZ     PTSUNNY   91  28  10 SW18      29.91F
LOS MOCHIS     PTSUNNY   84  54  34 SW13      29.91F
OBREGON        PTSUNNY   84  61  45 S8        29.88S

NORTHEASTERN MEXICO

CITY           SKY/WX    TMP DP  RH WIND       PRES   REMARKS
CHIHUAHUA      CLOUDY    77  39  25 CALM      30.05R
MATAMOROS      PTSUNNY   90  75  62 SE15      29.86S HX 100
MONCLOVA         N/A    N/A N/A N/A MISG        N/A
MONTERREY      PTSUNNY   91  68  46 SE9       29.85F HX  95
NUEVO LAREDO   PTSUNNY   91  75  59 E9        29.83F HX 102
PIEDRAS NEGRAS   N/A    N/A N/A N/A MISG        N/A
REYNOSA        MOSUNNY   88  72  58 SE12G23   29.85S HX  94
SALTILLO       PTSUNNY   88  61  40 NE17      30.10S
TORREON        PTSUNNY   99  37  12 N8        29.94F HX  93
CD. VICTORIA   CLOUDY    88  77  70 SW2       29.85R HX 100

WESTERN MEXICO

CITY           SKY/WX    TMP DP  RH WIND       PRES   REMARKS
AGUASCALIENTES MOSUNNY   90  12   5 SW8       30.18F
COLIMA         SUNNY     93  68  43 W9        29.97F HX  97
DEL BAJIO      MOSUNNY   91  34  13 NE3       30.22F
GUADALAJARA    SUNNY     93  27   9 N7G18     30.09F
MANZANILLO     SUNNY     81  73  78 SW14      29.82F
MAZATLAN       CLOUDY    88  63  42 W8        29.88F
P. VALLARTA    SUNNY     84  75  74 SW13      29.89S HX  92
URUAPAN        SUNNY     84  61  45 S7        30.16F
ZACATECAS      PTSUNNY   84  32  15 CALM      30.25F

CENTRAL MEXICO

CITY           SKY/WX    TMP DP  RH WIND       PRES   REMARKS
CUERNAVACA     PTSUNNY   90  52  27 CALM      30.05F
MEXICO CITY    PTSUNNY   82  43  24 NE7       30.29F
MORELIA        PTSUNNY   81  55  41 SW9       30.22S
POZA RICA      SUNNY     95  77  55 E9        29.84S HX 109
PUEBLA         PTSUNNY   73  46  38 NE14      30.34R
QUERETARO      PTSUNNY   90  37  15 W5        30.22
S. LUIS POTOSI MOSUNNY   93  19   7 SW8G20    30.13F
TAMPICO        MOSUNNY   86  77  74 E14       29.82S HX  97
TOLUCA         CLOUDY    68  48  49 NW8       30.45S

SOUTHERN MEXICO

CITY           SKY/WX    TMP DP  RH WIND       PRES   REMARKS
ACAPULCO       SUNNY     88  77  70 SW8       29.82S HX 100
B. DE HUATULCO PTSUNNY   84  68  58 CALM      29.92F
OAXACA         CLOUDY    90  48  24 SE13      30.13S
P. ESCONDIDO   MOSUNNY   88  79  74 W9        29.95S HX 102
VERACRUZ       MOSUNNY   91  79  66 E6        29.80R HX 107
ZIHUATANEJO    SUNNY     88  77  70 SW9       29.83F HX 100

YUCATAN PENINSULA

CITY           SKY/WX    TMP DP  RH WIND       PRES   REMARKS
CAMPECHE       MOSUNNY   90  81  74 N23G35    29.82S HX 108
CANCUN         PTSUNNY   86  77  74 E12       29.99S HX  97
CHETUMAL       MOSUNNY   88  77  70 SE12      29.93S HX 100
CD. DEL CARMEN MOSUNNY   90  79  70 NE12      29.83F HX 105
COZUMEL        PTSUNNY   84  77  79 E13       29.98S HX  94
MERIDA         MOSUNNY   95  73  49 N12       29.88F HX 105
MINATITLAN     SUNNY     90  79  70 N14       29.78S HX 105
TAPACHULA      PTSUNNY   88  81  79 SW12      29.80F HX 105
TUX. GUTIERREZ CLOUDY    95  68  41 W13       29.86R HX  99
VILLAHERMOSA   SUNNY     97  77  52 NE7       29.83F HX 112

CENTRAL AMERICA

CITY           SKY/WX    TMP DP  RH WIND       PRES   REMARKS
BELIZE CITY    MOSUNNY   88  79  74 E9        29.94  HX 102
MANAGUA        PTCLDY    97  72  44 E12       29.77  HX 105

CARIBBEAN

CITY           SKY/WX    TMP DP  RH WIND       PRES   REMARKS
ARUBA          PTCLDY    84  75  74 E26G38    29.89R HX  92
CURACAO        PTCLDY    82  75  78 E18       29.94R
KINGSTON       MOCLDY    84  73  70 SE8       29.94S HX  91
NASSAU         MOSUNNY   81  75  83 N9        30.11R
SAN JUAN       MOCLDY    82  73  74 E10       30.08R
SANTO DOMINGO  MOCLDY    82  77  83 CALM      30.03S HX  91
ST. CROIX      LGT RAIN  81  73  78 E10       30.08S
ST. KITTS      PTCLDY    82  73  74 E14       30.09R
ST. MAARTEN    PTCLDY    82  75  78 E9        30.09R
ST. THOMAS     PTCLDY    84  73  70 E10       30.08  HX  91

$$




USA.gov is the U.S. government's official web portal to all federal, state and local government web resources and services.